Погода в Кутарбитке

Россия / Тюменская область     57°50′02″N   67°58′38″E
темп.,
°C
ветер,
м/с
пор.,
м/с
влажн.,
%
обл.,
%
осадки,
мм/ч
давл.,
гПа
погр.,
м
12 мая, ср
ср1223:00+14з244137 0.0 102446
02:00+13з384773 0.0 1023146
05:00+13ссз287197 0.0 1024253
08:00+14ссз5851100 0.0 1025747
11:00+16ссз5730100 0.0 10251116
14:00+18ссз6828100 0.0 10251740
17:00+18ссз5730100 0.0 10251712
20:00+16сз224695 0.0 102519
13 мая, чт
чт1323:00+15зсз2255100 0.0 102458
02:00+13з246386 0.0 102389
05:00+13з3116563 0.0 1022276
08:00+19сз49556 0.0 1022576
11:00+23сз6941100 0.0 10212155
14:00+22ссз5104899 0.0 10211787
17:00+23ссз693415 0.0 10222324
20:00+18ссв49375 0.0 1024343
14 мая, пт
пт1423:00+13св22485 0.0 102624
02:00+10вюв22615 0.0 102720
05:00+10ю23665 0.0 102858
08:00+17ююз344258 0.0 1027398
11:00+23юз463125 0.0 10251017
14:00+27зюз583299 0.0 10222454
17:00+28з592893 0.0 10213087
20:00+23зюз374127 0.0 1020105
15 мая, сб
сб1523:00+19юз385059 0.0 1019120
02:00+17зюз310565 0.0 1018161
05:00+16зюз3959100 0.0 1019166
08:00+22з41046100 0.0 1018450
11:00+27з61037100 0.0 10181978
14:00+28зсз692959 0.0 10172716
17:00+29зсз592752 0.0 10163268
20:00+25зсз4123831 0.0 1016439
16 мая, вс
вс1623:00+18с1170100 1.3 101713
02:00+17юз3578100 1.0 101782
05:00+16зюз397421 1.0 1016170
08:00+22з48515 0.0 1017449
11:00+22ссз584362 0.0 10181502
14:00+24ссз57355 0.0 10192069
17:00+24с353384 0.0 10191815
20:00+20в235020 0.0 101958